Find Starlink 34635

NORAD ID: 64761 Int'l Des: 2025-147 Owner: SPXS Country: US Constellation: starlink operational
LEOCIRCULAR

当前视图

正在加载3D地球...

About Starlink 34635

Starlink 34635 (NORAD 64761) is a starlink constellation satellite (v2 mini) launched Jul 8, 2025 by SPXS of US. It operates in LEO, CIRCULAR orbit with a mass of 575.00 kg.

即将过境

Passes for default location (London). Set your location on the main map for personalized predictions.

高度历史

Loading altitude history...

两行轨道根数

1 64761U 25147G 26262.97918667 .00017339 00000-0 52274-3 0 9990
2 64761 53.1587 56.3766 0001124 96.8356 263.2774 15.34423032 68555
Epoch: Sep 19, 2026 • Age: 18 hours

当前状态

高度 468.4 km
远地点 / 近地点 N/A
速度 7.64 km/s
星下点 53.18°N, 118.24°W
发射日期 Jul 8, 2025
运行时间 1.2 years
类型 internet

技术详情

分类 Payload
质量 575.00 kg
干质量 530.00 kg
长度 0.30 m
跨度 29.00 m
形状 ? Box + pan
制造商 SPXS
平台类型 Starlink V2MO
阶段状态 In Orbit
所有者/国家 SPXS/US

Most Searched